Regional Weather Roundup
Issued by NWS

Home | Current Version | Previous Version | Graphics & Text | Print | Product List | Glossary On
Versions: 1 2 3 4 5 6 7 8 9 10 11 12 13 14 15 16 17 18 19 20 21 22 23 24 25 26 27 28 29 30 31 32 33 34 35 36 37 38 39 40 41 42 43 44 45 46 47 48 49
000
ASUS43 KDMX 030707
RWRIA

WEATHER ROUNDUP FOR IOWA
NATIONAL WEATHER SERVICE DES MOINES IA
200 AM CDT THU SEP 03 2015

NOTE: "FAIR" INDICATES FEW OR NO CLOUDS BELOW 12,000 FEET WITH NO
SIGNIFICANT WEATHER AND/OR OBSTRUCTIONS TO VISIBILITY.

* - THESE STATIONS ARE NOT NWS STATIONS...THUS NOT UNDER NWS
QUALITY CONTROL.  THEY ALSO DO NOT REPORT WEATHER SUCH
AS PRECIPITATION OR FOG.

IAZ001>003-012>014-020>022-031>034-043>046-030800-
   NORTHWEST IOWA

CITY           SKY/WX    TMP DP  RH WIND       PRES   REMARKS
CARROLL *      MOCLDY    73  72  94 S9        29.89S
CHEROKEE *     CLEAR     70  70 100 S5        29.87S
DENISON *      CLEAR     73  70  88 VRB7      29.87S
LE MARS *      CLEAR     73  72  94 S8        29.85S
ORANGE CITY *  CLEAR     72  70  94 SE3       29.86S
SHELDON *      CLEAR     72  70  94 SE5       29.85F
SIOUX CITY     CLEAR     71  67  87 E7        29.84S
SPENCER        CLEAR     71  67  87 S5        29.87F FOG
STORM LAKE *   CLEAR     70  70 100 S8        29.89F
$$

IAZ055>058-069>071-079>083-090>094-030800-
   SOUTHWEST IOWA

CITY           SKY/WX    TMP DP  RH WIND       PRES   REMARKS
ATLANTIC *     CLEAR     73  70  88 S8        29.90S
AUDUBON *      CLEAR     72  68  88 S6        29.91F
CLARINDA *     CLOUDY    73  72  94 S6        29.92F
COUNCIL BLFS * CLEAR     72  70  94 SE8       29.88F
CRESTON *      CLEAR     72  70  94 S8        29.94F
LAMONI         PTCLDY    73  69  87 S8        29.94S
RED OAK *      PTCLDY    73  70  88 S5        29.90F
SHENANDOAH *   MOCLDY    73  70  88 SE5       29.90S
$$

IAZ047>049-059>061-072>074-084-030800-
   CENTRAL IOWA

CITY           SKY/WX    TMP DP  RH WIND       PRES   REMARKS
AMES           CLEAR     69  68  96 CALM      29.90S FOG
ANKENY *       CLEAR     73  72  94 CALM      29.90F
CHARITON *     MOCLDY    72  68  88 S6        29.93F
DES MOINES     PTCLDY    76  68  76 S9        29.90F
GRINNELL*      CLEAR     72  68  88 S8        29.93S
KNOXVILLE *    CLEAR     73  68  83 S8        29.91S
MARSHALLTOWN   CLEAR     71  68  90 S3        29.91F
PELLA *        CLEAR     72  72 100 S5        29.93S
PERRY *          N/A     72  70  94 CALM      29.90S
$$

IAZ004>006-015-016-023>025-035-036-030800-
   NORTH CENTRAL IOWA

CITY           SKY/WX    TMP DP  RH WIND       PRES   REMARKS
ALGONA *       CLEAR     72  70  94 S9        29.89F
CLARION *      CLEAR     72  70  94 S7        29.90F
ESTHERVILLE    CLEAR     67  66  97 SE5       29.88F
FORT DODGE *   CLEAR     72  66  83 CALM      29.90S
MASON CITY     CLEAR     67  66  97 S5        29.92F
FOREST CITY *  CLEAR     64  64 100 CALM      29.91S FOG
IOWA FALLS *     N/A     68  68 100 SE3       29.92F FOG
$$

IAZ007>011-017>019-026>030-037>042-050>054-066-030800-
   NORTHEAST IOWA

CITY           SKY/WX    TMP DP  RH WIND       PRES   REMARKS
CEDAR RAPIDS   CLEAR     71  70  96 S7        29.93S
CHARLES CITY * CLEAR     68  68 100 S5        29.92F
CLINTON *      CLEAR     72  68  88 CALM      29.97S
DECORAH *      CLOUDY    72  70  94 SW3       29.92F
DUBUQUE        PTCLDY    70  67  90 S6        29.95F
MONTICELLO *   MOCLDY    70  68  94 CALM      29.93F
OELWEIN *        N/A     68  68 100 SE5       29.94S
WATERLOO       CLEAR     71  68  90 VRB6      29.90F
$$

IAZ064-065-067-068-078-030800-
   EAST CENTRAL IOWA

CITY           SKY/WX    TMP DP  RH WIND       PRES   REMARKS
DAVENPORT      MOCLDY    74  67  78 S8        29.95F
IOWA CITY      CLEAR     71  68  90 CALM      29.94F
MT. PLEASANT * PTCLDY    73  68  83 S5        29.95F
MUSCATINE *    CLEAR     72  66  83 CALM      29.94F
QUAD CITIES      N/A     76  68  76 SW8       29.94F
$$

IAZ062-063-075>077-085>089-095>099-030800-
   SOUTHEAST IOWA

CITY           SKY/WX    TMP DP  RH WIND       PRES   REMARKS
BURLINGTON     CLOUDY    74  70  87 S6        29.95F
FAIRFIELD *    CLEAR     73  68  83 S6        29.94F
FORT MADISON * CLOUDY    73  72  94 S6        29.96F
KEOKUK *       PTCLDY    75  70  83 S6        29.95S
OSKALOOSA *      N/A     72  68  88 S5        29.93F
CENTERVILLE *  CLEAR     72  68  88 S6        29.96F
OTTUMWA        CLEAR     72  70  93 S8        29.92F
WASHINGTON *     N/A    N/A N/A N/A MISG        N/A
$$

ABBREVIATIONS USED IN REMARKS
   TC - TEMPERATURES IN CELSIUS
  WCI - WIND CHILL INDEX
   HX - HEAT INDEX
  VSB - VISIBILITY
$$




USA.gov is the U.S. government's official web portal to all federal, state and local government web resources and services.